Weather History for Jackson, TN

Change the Weather History Date:

Saturday, September 8, 2012

  Actual Average Record
Temperature  
Mean Temperature 66 °F 74 °F  
Max Temperature 77 °F 87 °F 101 °F (1980)
Min Temperature 55 °F 62 °F 47 °F (2011)
Degree Days  
Heating Degree Days 0 0  
Month to date heating degree days 0 0  
Since 1 July heating degree days 0 0  
Cooling Degree Days 1 9  
Month to date cooling degree days 113 83  
Year to date cooling degree days 1802 1506  
Growing Degree Days 17 (Base 50)    
Moisture  
Dew Point 61 °F    
Average Humidity 68    
Maximum Humidity 93    
Minimum Humidity 43    
Precipitation  
Precipitation 0.06 in 0.09 in 1.25 in (1991)
Month to date precipitation 4.52 0.74  
Year to date precipitation 29.67 36.61  
Snow  
Snow 0.00 in 0.00 in - ()
Month to date snowfall 0.0 0.0  
Since 1 July snowfall 0.0 0.0  
Since 1 September snowfall 0.0 0.0  
Snow Depth 0.00 in    
Sea Level Pressure  
Sea Level Pressure 29.91 in    
Wind  
Wind Speed 9 mph (NNW)    
Max Wind Speed 23 mph    
Max Gust Speed 28 mph    
Visibility 10 miles    
Events Rain    
T = Trace of Precipitation, MM = Missing Value Source: NWS Daily Summary

Daily Weather History Graph

Daily Weather History Graph

Search for Another Location

Airport:

Trip Planner

Search our weather history database for the weather conditions in past years. The results will help you decide how hot, cold, wet, or windy it might be!

Date:

Astronomy

Sep. 08, 2012 Rise Set
Actual Time 6:33 AM CDT 7:12 PM CDT
Civil Twilight 6:07 AM CDT 7:37 PM CDT
Nautical Twilight 5:37 AM CDT 8:08 PM CDT
Astronomical Twilight 5:06 AM CDT 8:39 PM CDT
Moon No Moon Rise 2:00 PM CDT (9/8)
Length of Visible Light 13h 30m
Length of Day
12h 38m
Waning Gibbous, 48% of the Moon is Illuminated
Sep 8
Waning Gibbous
Sep 15
New
Sep 22
First Quarter
Sep 29
Full
Oct 8
Last Quarter

Hourly Weather History & Observations

Time (CDT) Temp. Dew Point Humidity Pressure Visibility Wind Dir Wind Speed Gust Speed Precip Events Conditions
12:13 AM 69.8 °F 68.0 °F 94% 29.87 in 7.0 mi WSW 8.1 mph - 0.07 in Rain Rain
12:53 AM 70.0 °F 68.0 °F 93% 29.84 in 10.0 mi WSW 5.8 mph - 0.11 in Rain Light Rain
1:53 AM 71.1 °F 69.1 °F 93% 29.80 in 10.0 mi WSW 3.5 mph - 0.03 in Rain Light Rain
2:33 AM 69.8 °F 69.8 °F 100% 29.82 in 10.0 mi West 4.6 mph - 0.01 in   Mostly Cloudy
2:42 AM 71.6 °F 69.8 °F 94% 29.82 in 10.0 mi WNW 6.9 mph - 0.01 in   Overcast
2:53 AM 71.1 °F 69.1 °F 93% 29.80 in 10.0 mi Variable 3.5 mph - 0.02 in   Overcast
3:53 AM 71.1 °F 69.1 °F 93% 29.79 in 10.0 mi West 3.5 mph - N/A   Mostly Cloudy
4:53 AM 71.1 °F 69.1 °F 93% 29.80 in 10.0 mi West 5.8 mph - N/A   Overcast
5:39 AM 69.8 °F 66.2 °F 88% 29.84 in 10.0 mi North 16.1 mph 26.5 mph 0.00 in   Overcast
5:53 AM 69.1 °F 66.9 °F 93% 29.83 in 10.0 mi NNW 12.7 mph - 0.00 in   Overcast
6:53 AM 68.0 °F 66.0 °F 93% 29.86 in 10.0 mi North 15.0 mph - N/A   Overcast
7:53 AM 66.9 °F 64.0 °F 90% 29.90 in 9.0 mi NNW 18.4 mph 26.5 mph 0.01 in Rain Light Rain
8:49 AM 66.2 °F 62.6 °F 88% 29.94 in 10.0 mi North 11.5 mph - 0.00 in   Overcast
8:53 AM 66.0 °F 63.0 °F 90% 29.93 in 10.0 mi North 12.7 mph - 0.00 in   Overcast
9:53 AM 66.9 °F 60.1 °F 79% 29.95 in 10.0 mi North 16.1 mph - N/A   Overcast
10:31 AM 69.8 °F 59.0 °F 68% 29.97 in 10.0 mi NNE 17.3 mph 24.2 mph N/A   Scattered Clouds
10:53 AM 72.0 °F 59.0 °F 64% 29.96 in 10.0 mi North 17.3 mph - N/A   Partly Cloudy
11:53 AM 73.9 °F 57.0 °F 55% 29.96 in 10.0 mi North 18.4 mph 24.2 mph N/A   Clear
12:53 PM 73.9 °F 57.0 °F 55% 29.96 in 10.0 mi NNE 11.5 mph - N/A   Scattered Clouds
1:53 PM 75.9 °F 55.0 °F 48% 29.95 in 10.0 mi NNE 11.5 mph 19.6 mph N/A   Partly Cloudy
2:53 PM 75.0 °F 54.0 °F 48% 29.94 in 10.0 mi North 13.8 mph 18.4 mph N/A   Partly Cloudy
3:53 PM 77.0 °F 53.1 °F 43% 29.93 in 10.0 mi North 10.4 mph - N/A   Scattered Clouds
4:53 PM 75.9 °F 54.0 °F 46% 29.93 in 10.0 mi NNE 9.2 mph - N/A   Clear
5:53 PM 73.9 °F 54.0 °F 50% 29.94 in 10.0 mi NNW 8.1 mph - N/A   Clear
6:53 PM 70.0 °F 54.0 °F 57% 29.95 in 10.0 mi NW 8.1 mph - N/A   Clear
7:53 PM 66.0 °F 54.0 °F 65% 29.97 in 10.0 mi NNW 5.8 mph - N/A   Clear
8:53 PM 64.9 °F 54.0 °F 68% 29.99 in 10.0 mi NW 3.5 mph - N/A   Clear
9:53 PM 61.0 °F 55.9 °F 83% 30.01 in 10.0 mi Calm Calm - N/A   Clear
10:53 PM 57.9 °F 55.0 °F 90% 30.01 in 10.0 mi Calm Calm - N/A   Clear
11:53 PM 57.0 °F 55.0 °F 93% 30.01 in 10.0 mi Calm Calm - N/A   Clear